铱星星座 129星 (IRIDIUM 129)

导读

IRIDIUM 129是美国于2017年10月9日发射的新一代铱星通信卫星,隶属于全球著名低轨移动通信星座——铱星系统星座。该卫星运行在近极圆轨道,轨道高度约780千米,轨道倾角接近86.4°,属于低地球轨道通信卫星。作为铱星 NEXT 星座组网卫星,它接替老一代铱星卫星,为全球提供随时随地卫星语音通话、数据通信服务,为海洋、航空、偏远地区提供稳定移动通信支持。

基本信息
目录编号:
42958
目录名称:
IRIDIUM 129
国际标识:
2017-061D
轨道中心:
EARTH
卫星名称:
铱星星座 129星
卫星全名:
铱星星座 129星 (IRIDIUM 129)
卫星状态:
在轨 (已飞行3259 天)
发射日期:
2017-10-09 UTC
国别 :
美国 (US)
星等 :
--
轨道信息
数据来源 国际轨道数据
星历时间: 2026-09-10T16:17:55+0800
19小时前
查看轨道信息
半长轴: 7155.806km
偏心率: 0.0002305
轨道倾角: 86.403°
近地点辐角 100.814°
升交点赤经 349.667°
平近点角 259.332°
近地点: 776.019km
远地点: 779.319km
周期: 100.403分钟
每日圈数: 14.342172
详细信息
平衡模式:
三轴稳定
覆盖范围:
全球
运营商:
铱星通信公司
运营商所在国:
美国
制造商(研发单位):
阿莱尼亚宇航公司
制造商所在国:
意大利
使用方式:
暂无
卫星简介
铱星(Iridium)是由共66个运作中的通信卫星组成的卫星通信系统。这个系统原本规划77个通信卫星,所以用原子序数为77的铱元素来命名。铱卫星允许人们使用手持型电子设备进行全球性的语音及数据通讯。该卫星仍在工作。
2D轨道图
3D轨道图
轨道高度分析图
轨道倾角分析图
轨道综合分析图
查看轨道综合分析图
与全量物体交会距离演化趋势
与全量物体交会风险概率演化趋势